This demonstration page uses our WeatherBlox Daily Observations layout. Learn more.

Left ArrowRight Arrow

Hourly Observations for September 6, 2018

Temp ( °F °C ) Dew Point ( °F °C ) Humidity (%) Winds ( mph kmh ) Pressure ( in mb ) Visibility ( mi km ) Precip ( " mm )
12:53 am 00:53 Clear 73 22.8 67 19.4 81 81 ENE 5 7 30.05 1018 10 16 0.00 0.00
1:53 am 01:53 Mostly Cloudy 73 22.8 67 19.4 81 81 NE 5 7 30.04 1017 10 16 0.00 0.00
2:20 am 02:20 Partly Cloudy 73 22.8 65 18.3 76 76 Calm 30.03 1017 10 16 0.00 0.00
2:53 am 02:53 Mostly Clear 72 22.2 65 18.3 79 79 Calm 30.02 1017 10 16 0.00 0.00
3:51 am 03:51 Mostly Cloudy 72 22 66 19 83 83 N 5 7 30.03 1017 10 16 0.00 0.00
3:53 am 03:53 Mostly Cloudy 71 21.7 66 18.9 84 84 N 5 7 30.02 1017 10 16 0.00 0.00
4:30 am 04:30 Cloudy 71 21.7 66 18.9 84 84 NNE 5 7 30.03 1017 10 16 0.00 0.00
4:53 am 04:53 Partly Cloudy 69 20.6 66 18.9 90 90 N 5 7 30.01 1016 10 16 0.00 0.00
5:40 am 05:40 Mostly Cloudy 70 21.1 66 18.9 87 87 N 5 7 30.03 1017 10 16 0.00 0.00
5:53 am 05:53 Cloudy 70 21.1 66 18.9 87 87 NNE 6 9 30.01 1016 10 16 0.00 0.00
6:27 am 06:27 Mostly Cloudy 70 21.1 66 18.9 87 87 N 6 9 30.03 1017 10 16 0.00 0.00
6:53 am 06:53 Mostly Cloudy 70 21.1 66 18.9 87 87 NNE 6 9 30.02 1017 10 16 0.00 0.00
7:53 am 07:53 Mostly Cloudy 70 21.1 67 19.4 90 90 NNW 5 7 30.05 1018 10 16 0.00 0.03
8:04 am 08:04 Mostly Cloudy 70 21.1 67 19.4 90 90 N 6 9 30.06 1018 10 16 0.00 0.00
8:53 am 08:53 Cloudy with Light Rain 71 21.7 68 20 90 90 NE 7 11 30.07 1018 5 8 0.00 0.03
9:53 am 09:53 Cloudy 74 23.3 69 20.6 85 85 NE 8 13 30.07 1018 10 16 0.00 0.03
10:07 am 10:07 Cloudy 76 24.4 69 20.6 79 79 NNE 10 17 30.03 1017 10 16 0.00 0.00
10:53 am 10:53 Partly Cloudy 77 25 65 18.3 66 66 ENE 16 26 30.07 1018 10 16 0.00 0.00
11:53 am 11:53 Mostly Cloudy 75 23.9 65 18.3 71 71 ENE 13 20 30.08 1019 10 16 0.00 0.00
12:53 pm 12:53 Partly Cloudy 79 26.1 66 18.9 65 65 NE 15 24 30.05 1018 10 16 0.01 0.25
1:53 pm 13:53 Mostly Cloudy 83 28.3 64 17.8 53 53 E 14 22 30.03 1017 10 16 0.00 0.00
2:53 pm 14:53 Mostly Cloudy 82 27.8 64 17.8 55 55 ENE 12 19 30.01 1016 10 16 0.00 0.00
3:35 pm 15:35 Mostly Cloudy with Nearby Thunderstorms 81 27.2 63 17.2 54 54 NNE 13 20 29.94 1014 10 16 0.00 0.00
3:50 pm 15:50 Mostly Cloudy with Light Rain 79 26 64 18 61 61 NE 14 22 29.97 1015 10 16 0.00 0.03
3:53 pm 15:53 Cloudy with Light Rain 77 25 66 18.9 69 69 NE 14 22 30.01 1016 10 16 0.00 0.03
3:58 pm 15:58 Cloudy with Heavy Rain 73 22.8 68 20 84 84 NE 16 26 30.00 1016 2 3 0.12 3.05
4:03 pm 16:03 Cloudy with Heavy Rain 70 21.1 69 20.6 97 97 ENE 14 22 30.00 1016 1 1 0.25 6.35
4:10 pm 16:10 Cloudy with Heavy Rain 71 21.7 69 20.6 94 94 E 9 15 30.00 1016 1 2 0.33 8.38
4:16 pm 16:16 Cloudy with Thunderstorms 71 21.7 67 19.4 87 87 E 8 13 30.00 1016 2 3 0.35 8.89
4:33 pm 16:33 Cloudy with Rain 71 21.7 68 20 90 90 SSW 3 6 30.03 1017 3 5 0.43 10.92
4:53 pm 16:53 Cloudy with Rain 70 21.1 69 20.6 97 97 WNW 6 9 30.03 1017 4 6 0.47 11.94
5:53 pm 17:53 Cloudy with Rain 70 21.1 68 20 93 93 N 9 15 30.03 1017 5 8 0.13 3.30
6:53 pm 18:53 Mostly Cloudy with Light Rain 69 20.6 67 19.4 93 93 NNE 8 13 30.02 1017 8 13 0.12 3.05
7:53 pm 19:53 Cloudy 70 21.1 68 20 93 93 NNE 3 6 30.03 1017 10 16 0.02 0.51
8:53 pm 20:53 Mostly Cloudy 71 21.7 68 20 90 90 Calm 30.04 1017 10 16 0.00 0.00
9:11 pm 21:11 Cloudy 71 21.7 68 20 90 90 Calm 30.03 1017 10 16 0.00 0.00
9:28 pm 21:28 Mostly Cloudy 71 21.7 69 20.6 94 94 E 3 6 30.06 1018 10 16 0.00 0.00
9:53 pm 21:53 Mostly Cloudy with Light Rain 70 21.1 69 20.6 97 97 Calm 30.06 1018 10 16 0.02 0.51
10:53 pm 22:53 Mostly Clear 70 21.1 68 20 93 93 Calm 30.05 1018 10 16 0.00 0.03
11:53 pm 23:53 Mostly Clear with Light Rain 70 21.1 67 19.4 90 90 Calm 30.06 1018 10 16 0.02 0.51

Powered by AerisWeather